TimeAKST,TemperatureF,Dew PointF,Humidity,Sea Level PressureIn,VisibilityMPH,Wind Direction,Wind SpeedMPH,Gust SpeedMPH,PrecipitationIn,Events,Conditions,WindDirDegrees,DateUTC
12:53 AM,25.0,21.0,85,30.29,10.0,NE,3.5,-,N/A,,Overcast,40,2013-01-11 09:53:00
1:53 AM,27.0,21.9,81,30.29,10.0,Calm,Calm,-,N/A,,Overcast,0,2013-01-11 10:53:00
3:53 AM,25.0,21.9,88,30.26,10.0,Calm,Calm,-,N/A,,Overcast,0,2013-01-11 12:53:00
4:53 AM,25.0,21.0,85,30.24,10.0,Calm,Calm,-,N/A,,Overcast,0,2013-01-11 13:53:00
5:53 AM,24.1,21.0,88,30.23,10.0,NE,3.5,-,N/A,,Overcast,50,2013-01-11 14:53:00
6:41 AM,24.8,21.2,86,30.24,4.0,NE,3.5,-,N/A,,Overcast,50,2013-01-11 15:41:00
6:53 AM,25.0,21.9,88,30.23,4.0,NNE,3.5,-,N/A,,Overcast,30,2013-01-11 15:53:00
7:11 AM,24.8,21.2,86,30.24,4.0,NE,3.5,-,N/A,,Mist,40,2013-01-11 16:11:00
7:53 AM,24.1,21.0,88,30.22,8.0,NE,3.5,-,0.00,,Overcast,50,2013-01-11 16:53:00
8:02 AM,24.8,21.2,86,30.22,10.0,NE,3.5,-,N/A,,Unknown,40,2013-01-11 17:02:00
8:53 AM,25.0,21.0,85,30.23,9.0,Calm,Calm,-,N/A,,Unknown,0,2013-01-11 17:53:00
9:28 AM,24.8,21.2,86,30.23,1.8,NE,4.6,-,0.00,Snow,Light Snow,40,2013-01-11 18:28:00
9:38 AM,24.8,21.2,86,30.23,1.2,NE,4.6,-,0.00,Snow,Light Snow,40,2013-01-11 18:38:00
9:48 AM,24.8,21.2,86,30.23,1.5,NE,3.5,-,0.00,Snow,Light Snow,50,2013-01-11 18:48:00
9:53 AM,25.0,21.9,88,30.23,1.5,Calm,Calm,-,0.00,Snow,Light Snow,0,2013-01-11 18:53:00
10:19 AM,24.8,21.2,86,30.23,2.5,Calm,Calm,-,0.00,Snow,Light Snow,0,2013-01-11 19:19:00
10:30 AM,24.8,21.2,86,30.23,5.0,Calm,Calm,-,0.00,,Mist,0,2013-01-11 19:30:00
10:53 AM,25.0,21.9,88,30.22,5.0,NNE,3.5,-,0.00,,Mist,30,2013-01-11 19:53:00
11:53 AM,26.1,24.1,92,30.22,5.0,Calm,Calm,-,N/A,,Mist,0,2013-01-11 20:53:00
12:53 PM,27.0,23.0,85,30.21,8.0,Calm,Calm,-,N/A,,Unknown,0,2013-01-11 21:53:00
1:53 PM,27.0,23.0,85,30.21,10.0,Calm,Calm,-,N/A,,Unknown,0,2013-01-11 22:53:00
2:53 PM,28.0,24.1,85,30.22,5.0,Calm,Calm,-,N/A,,Mist,0,2013-01-11 23:53:00
3:10 PM,28.4,24.8,86,30.22,1.8,Calm,Calm,-,0.00,Snow,Light Snow,0,2013-01-12 00:10:00
3:20 PM,26.6,24.8,93,30.22,1.0,Calm,Calm,-,0.00,Snow,Light Snow,0,2013-01-12 00:20:00
3:40 PM,28.4,24.8,86,30.22,2.0,Calm,Calm,-,0.00,Snow,Light Snow,0,2013-01-12 00:40:00
3:53 PM,28.0,25.0,88,30.22,2.5,Calm,Calm,-,0.00,Snow,Light Snow,0,2013-01-12 00:53:00
4:53 PM,28.0,25.0,88,30.22,2.5,Calm,Calm,-,0.00,Snow,Light Snow,0,2013-01-12 01:53:00
5:28 PM,28.4,24.8,86,30.22,4.0,Calm,Calm,-,0.00,Snow,Light Snow,0,2013-01-12 02:28:00
5:51 PM,26.6,24.8,93,30.22,2.5,Calm,Calm,-,0.00,Snow,Light Snow,0,2013-01-12 02:51:00
5:53 PM,27.0,25.0,92,30.22,2.5,Calm,Calm,-,0.00,Snow,Light Snow,0,2013-01-12 02:53:00
6:22 PM,26.6,24.8,93,30.23,4.0,Calm,Calm,-,0.00,Snow,Light Snow,0,2013-01-12 03:22:00
6:53 PM,27.0,25.0,92,30.24,6.0,Calm,Calm,-,0.00,Snow,Light Snow,0,2013-01-12 03:53:00
7:53 PM,27.0,25.0,92,30.25,4.0,Calm,Calm,-,0.00,Snow,Light Snow,0,2013-01-12 04:53:00
8:53 PM,27.0,24.1,89,30.25,6.0,Calm,Calm,-,0.00,Snow,Light Snow,0,2013-01-12 05:53:00
9:53 PM,27.0,25.0,92,30.28,7.0,Calm,Calm,-,0.00,Snow,Light Snow,0,2013-01-12 06:53:00
10:53 PM,27.0,25.0,92,30.29,8.0,Calm,Calm,-,0.00,,Unknown,0,2013-01-12 07:53:00
11:53 PM,27.0,25.0,92,30.30,4.0,Calm,Calm,-,0.00,Snow,Light Snow,0,2013-01-12 08:53:00